Location: Stara Lesna
(49.1528°N, 20.2911°E)
Time: 09:26:18
(UTC+02:00)

Cosmos 1269 Rocket - Pass Details

Date: 13 July 2020
Orbit: 773 x 778 km, 74.1° (Epoch: 05 August)

Event Time Altitude Azimuth Distance (km) Brightness Sun altitude
Exits shadow 01:01:27 30° 220° (SW) 1,372 4.9 -19.0°
Maximum altitude 01:04:05 69° 296° (WNW) 832 4.2 -18.9°
Drops below altitude 10° 01:09:22 10° 19° (NNE) 2,331 7.7 -18.8°
Sets 01:11:47 0° 22° (NNE) 3,262 8.7 -18.8°
